QPF
0.01 0.02 0.02 0.02 0.02 0.03 0.05 0.07 0.05 0.03 0.03 0.02 0.02 0.02 0.02 0.02 0.01 0.01 0.01 0.01 0.01 0.01 0.01 0.01 0.01 0.01 0.01 0.01 0.01 0.01 0.00 0.01 0.01 0.02 0.02 0.01 0.01 0.02 0.03 0.03 0.04 0.06 0.04
0.01 0.01 0.02 0.02 0.02 0.02 0.02 0.03 0.04 0.03 0.03 0.03 0.02 0.01 0.01 0.01 0.00 0.00 0.01 0.01 0.01 0.01 0.01 0.01 0.01 0.01 0.01 0.02 0.02 0.01 0.01 0.01 0.01 0.01 0.02 0.02 0.01 0.02 0.03 0.03 0.06 0.06 0.04
0.01 0.01 0.02 0.03 0.02 0.02 0.02 0.02 0.03 0.03 0.03 0.02 0.01 0.01 0.00 0.00 0.00 0.00 0.01 0.01 0.01 0.01 0.01 0.01 0.01 0.01 0.01 0.01 0.01 0.01 0.01 0.01 0.02 0.02 0.01 0.02 0.02 0.02 0.02 0.02 0.03 0.02 0.02
0.02 0.02 0.02 0.03 0.03 0.03 0.02 0.03 0.03 0.03 0.02 0.02 0.02 0.01 0.01 0.00 0.00 0.00 0.00 0.00 0.00 0.00 0.00 0.00 0.01 0.01 0.01 0.01 0.01 0.01 0.01 0.02 0.03 0.02 0.01 0.01 0.01 0.02 0.03 0.03 0.03 0.03 0.03
0.02 0.02 0.02 0.03 0.03 0.03 0.02 0.02 0.02 0.01 0.01 0.01 0.02 0.01 0.01 0.01 0.00 0.01 0.01 0.01 0.01 0.01 0.00 0.00 0.00 0.01 0.01 0.01 0.01 0.01 0.01 0.02 0.02 0.02 0.02 0.02 0.03 0.03 0.03 0.03 0.03 0.04 0.04
0.02 0.02 0.03 0.04 0.04 0.04 0.03 0.02 0.02 0.01 0.01 0.01 0.01 0.01 0.01 0.01 0.01 0.01 0.01 0.01 0.02 0.01 0.01 0.00 0.00 0.01 0.01 0.01 0.01 0.01 0.02 0.02 0.02 0.02 0.02 0.03 0.03 0.03 0.04 0.04 0.04 0.04 0.04
0.02 0.03 0.04 0.04 0.04 0.04 0.04 0.04 0.03 0.03 0.02 0.01 0.01 0.01 0.01 0.02 0.02 0.02 0.02 0.01 0.01 0.01 0.01 0.01 0.01 0.02 0.02 0.02 0.02 0.02 0.01 0.01 0.02 0.03 0.03 0.02 0.03 0.03 0.04 0.05 0.05 0.04 0.05
0.04 0.05 0.04 0.03 0.04 0.05 0.08 0.10 0.09 0.07 0.05 0.04 0.03 0.03 0.03 0.02 0.02 0.03 0.02 0.01 0.01 0.01 0.01 0.02 0.02 0.02 0.02 0.02 0.02 0.02 0.02 0.01 0.01 0.01 0.01 0.02 0.02 0.02 0.03 0.04 0.04 0.04 0.04
0.05 0.04 0.05 0.06 0.07 0.09 0.11 0.13 0.14 0.12 0.09 0.07 0.05 0.04 0.03 0.03 0.02 0.02 0.02 0.02 0.03 0.02 0.01 0.01 0.02 0.02 0.02 0.02 0.02 0.02 0.02 0.01 0.01 0.00 0.01 0.02 0.01 0.02 0.02 0.04 0.04 0.05 0.04
0.05 0.05 0.05 0.05 0.06 0.08 0.09 0.09 0.08 0.08 0.07 0.06 0.05 0.04 0.03 0.03 0.02 0.02 0.02 0.02 0.04 0.04 0.02 0.02 0.01 0.02 0.02 0.02 0.02 0.03 0.03 0.02 0.01 0.00 0.01 0.01 0.01 0.01 0.02 0.03 0.04 0.05 0.05
0.03 0.05 0.05 0.07 0.08 0.10 0.10 0.08 0.06 0.05 0.05 0.04 0.04 0.04 0.03 0.02 0.02 0.02 0.01 0.02 0.03 0.03 0.02 0.02 0.02 0.02 0.02 0.02 0.02 0.03 0.04 0.03 0.01 0.01 0.02 0.01 0.01 0.01 0.02 0.03 0.03 0.04 0.04
0.03 0.04 0.04 0.06 0.08 0.08 0.07 0.08 0.08 0.06 0.05 0.04 0.03 0.03 0.02 0.02 0.02 0.02 0.02 0.03 0.03 0.03 0.03 0.02 0.02 0.03 0.02 0.02 0.02 0.03 0.04 0.02 0.01 0.01 0.02 0.01 0.01 0.02 0.02 0.03 0.03 0.04 0.04
0.03 0.03 0.04 0.05 0.06 0.05 0.05 0.09 0.10 0.08 0.05 0.04 0.03 0.02 0.02 0.02 0.02 0.02 0.02 0.03 0.04 0.03 0.03 0.04 0.03 0.03 0.04 0.04 0.04 0.04 0.05 0.05 0.03 0.02 0.01 0.01 0.02 0.02 0.02 0.04 0.04 0.03 0.03
0.03 0.04 0.04 0.04 0.05 0.05 0.04 0.06 0.07 0.07 0.06 0.05 0.04 0.04 0.03 0.02 0.03 0.03 0.04 0.04 0.04 0.05 0.06 0.07 0.06 0.05 0.05 0.05 0.04 0.04 0.04 0.04 0.04 0.04 0.03 0.02 0.02 0.03 0.04 0.04 0.03 0.02 0.03
0.03 0.04 0.05 0.05 0.05 0.05 0.05 0.04 0.04 0.06 0.06 0.06 0.07 0.07 0.06 0.04 0.04 0.05 0.05 0.05 0.05 0.05 0.04 0.05 0.07 0.08 0.08 0.06 0.04 0.03 0.04 0.04 0.03 0.04 0.04 0.03 0.03 0.04 0.04 0.04 0.04 0.04 0.04
0.02 0.03 0.05 0.04 0.04 0.06 0.06 0.04 0.04 0.04 0.05 0.08 0.11 0.11 0.10 0.07 0.05 0.04 0.04 0.05 0.05 0.05 0.05 0.06 0.07 0.09 0.09 0.06 0.04 0.03 0.03 0.04 0.06 0.05 0.05 0.04 0.04 0.05 0.05 0.06 0.06 0.05 0.05
0.02 0.03 0.04 0.04 0.03 0.05 0.06 0.04 0.04 0.04 0.03 0.04 0.06 0.09 0.08 0.07 0.05 0.04 0.04 0.04 0.05 0.06 0.09 0.10 0.10 0.09 0.07 0.05 0.04 0.04 0.04 0.04 0.04 0.05 0.05 0.06 0.07 0.07 0.06 0.07 0.08 0.06 0.05
0.03 0.03 0.03 0.03 0.03 0.04 0.04 0.03 0.03 0.03 0.03 0.03 0.03 0.04 0.05 0.06 0.07 0.06 0.05 0.04 0.06 0.08 0.10 0.12 0.10 0.06 0.03 0.03 0.05 0.04 0.04 0.04 0.04 0.04 0.04 0.05 0.07 0.07 0.07 0.07 0.07 0.06 0.05
0.03 0.03 0.04 0.04 0.03 0.03 0.03 0.04 0.06 0.07 0.06 0.05 0.04 0.04 0.05 0.06 0.07 0.07 0.06 0.07 0.07 0.08 0.08 0.07 0.06 0.05 0.04 0.04 0.04 0.06 0.06 0.05 0.05 0.05 0.05 0.05 0.05 0.05 0.06 0.05 0.06 0.06 0.05
0.03 0.05 0.05 0.05 0.05 0.05 0.04 0.05 0.09 0.10 0.08 0.06 0.06 0.07 0.07 0.07 0.07 0.07 0.07 0.08 0.09 0.08 0.07 0.07 0.06 0.06 0.05 0.04 0.05 0.05 0.08 0.08 0.06 0.06 0.07 0.06 0.05 0.04 0.04 0.03 0.04 0.04 0.04
0.03 0.05 0.07 0.06 0.05 0.05 0.05 0.07 0.08 0.09 0.05 0.05 0.05 0.05 0.06 0.09 0.10 0.09 0.07 0.08 0.09 0.08 0.08 0.08 0.08 0.07 0.05 0.05 0.05 0.05 0.05 0.06 0.06 0.04 0.03 0.04 0.03 0.03 0.03 0.03 0.04 0.03 0.03
0.03 0.05 0.06 0.06 0.05 0.05 0.05 0.07 0.06 0.07 0.05 0.05 0.05 0.05 0.06 0.06 0.08 0.11 0.11 0.08 0.08 0.08 0.08 0.07 0.07 0.05 0.06 0.06 0.05 0.05 0.05 0.05 0.05 0.04 0.03 0.03 0.03 0.03 0.02 0.02 0.03 0.04 0.03
0.02 0.04 0.05 0.06 0.06 0.07 0.06 0.07 0.07 0.08 0.06 0.07 0.07 0.07 0.05 0.04 0.06 0.09 0.11 0.10 0.07 0.07 0.07 0.06 0.05 0.05 0.05 0.05 0.05 0.08 0.07 0.05 0.05 0.05 0.03 0.02 0.03 0.04 0.03 0.04 0.03 0.03 0.03
0.02 0.04 0.06 0.05 0.05 0.08 0.07 0.05 0.07 0.07 0.06 0.06 0.06 0.06 0.05 0.05 0.05 0.07 0.08 0.08 0.08 0.06 0.05 0.05 0.05 0.06 0.06 0.06 0.06 0.07 0.08 0.08 0.07 0.06 0.05 0.03 0.03 0.04 0.04 0.03 0.03 0.03 0.03
0.04 0.05 0.06 0.06 0.06 0.07 0.06 0.05 0.06 0.06 0.06 0.07 0.06 0.05 0.05 0.05 0.04 0.05 0.07 0.09 0.08 0.06 0.05 0.05 0.05 0.05 0.05 0.06 0.06 0.06 0.05 0.06 0.05 0.05 0.05 0.04 0.03 0.03 0.03 0.03 0.04 0.03 0.02
0.06 0.07 0.06 0.06 0.06 0.06 0.06 0.05 0.06 0.07 0.06 0.05 0.05 0.05 0.05 0.04 0.04 0.05 0.05 0.05 0.06 0.05 0.04 0.04 0.04 0.04 0.05 0.05 0.06 0.05 0.05 0.04 0.04 0.06 0.06 0.04 0.04 0.03 0.03 0.03 0.03 0.03 0.03
MSLP
1004.43 1004.56 1005.08 1005.88 1006.78 1007.61 1008.26 1008.68 1008.88 1008.95 1009.01 1009.16 1009.47 1009.95 1010.55 1011.21 1011.81 1012.30 1012.62 1012.80 1012.89 1012.95 1013.06 1013.27 1013.58 1013.98 1014.40 1014.80 1015.12 1015.35 1015.48 1015.56 1015.64 1015.74 1015.91 1016.13 1016.40 1016.68 1016.93 1017.13 1017.27 1017.37 1017.44
1004.21 1004.44 1005.03 1005.87 1006.78 1007.60 1008.23 1008.62 1008.82 1008.90 1008.98 1009.18 1009.54 1010.08 1010.74 1011.42 1012.04 1012.52 1012.81 1012.95 1012.99 1013.01 1013.10 1013.30 1013.62 1014.03 1014.48 1014.89 1015.22 1015.44 1015.56 1015.63 1015.68 1015.77 1015.94 1016.17 1016.46 1016.76 1017.04 1017.27 1017.43 1017.53 1017.60
1003.89 1004.22 1004.88 1005.75 1006.67 1007.48 1008.10 1008.49 1008.70 1008.81 1008.94 1009.19 1009.60 1010.18 1010.86 1011.55 1012.15 1012.59 1012.85 1012.94 1012.96 1012.97 1013.06 1013.28 1013.63 1014.08 1014.55 1014.98 1015.30 1015.51 1015.61 1015.63 1015.65 1015.72 1015.86 1016.09 1016.39 1016.70 1017.01 1017.26 1017.44 1017.56 1017.65
1003.51 1003.95 1004.68 1005.58 1006.50 1007.30 1007.91 1008.31 1008.54 1008.70 1008.88 1009.18 1009.64 1010.24 1010.92 1011.59 1012.15 1012.55 1012.77 1012.85 1012.86 1012.90 1013.02 1013.29 1013.68 1014.16 1014.65 1015.08 1015.40 1015.57 1015.62 1015.61 1015.58 1015.61 1015.72 1015.93 1016.22 1016.55 1016.86 1017.14 1017.36 1017.51 1017.63
1003.14 1003.69 1004.49 1005.41 1006.33 1007.13 1007.73 1008.14 1008.40 1008.60 1008.83 1009.17 1009.66 1010.26 1010.92 1011.55 1012.08 1012.45 1012.65 1012.73 1012.77 1012.85 1013.03 1013.35 1013.79 1014.30 1014.80 1015.22 1015.51 1015.64 1015.64 1015.57 1015.50 1015.48 1015.56 1015.75 1016.03 1016.35 1016.68 1016.98 1017.23 1017.42 1017.58
1002.88 1003.52 1004.37 1005.31 1006.22 1007.00 1007.60 1008.01 1008.30 1008.53 1008.80 1009.17 1009.66 1010.25 1010.88 1011.48 1011.96 1012.31 1012.51 1012.62 1012.71 1012.85 1013.10 1013.48 1013.96 1014.49 1014.98 1015.38 1015.62 1015.70 1015.66 1015.55 1015.43 1015.38 1015.43 1015.60 1015.86 1016.18 1016.52 1016.83 1017.10 1017.33 1017.52
1002.81 1003.51 1004.38 1005.32 1006.20 1006.95 1007.53 1007.95 1008.25 1008.51 1008.80 1009.18 1009.67 1010.24 1010.83 1011.38 1011.83 1012.16 1012.38 1012.53 1012.68 1012.89 1013.20 1013.63 1014.14 1014.67 1015.14 1015.50 1015.70 1015.74 1015.66 1015.52 1015.38 1015.32 1015.36 1015.52 1015.77 1016.08 1016.41 1016.72 1017.00 1017.24 1017.46
1002.96 1003.68 1004.53 1005.43 1006.27 1006.98 1007.54 1007.94 1008.25 1008.53 1008.84 1009.22 1009.69 1010.23 1010.78 1011.28 1011.71 1012.03 1012.26 1012.46 1012.66 1012.93 1013.30 1013.75 1014.26 1014.78 1015.21 1015.52 1015.68 1015.69 1015.60 1015.46 1015.33 1015.28 1015.33 1015.50 1015.74 1016.04 1016.35 1016.65 1016.92 1017.15 1017.36
1003.30 1003.99 1004.79 1005.61 1006.38 1007.04 1007.57 1007.97 1008.29 1008.58 1008.91 1009.29 1009.75 1010.24 1010.75 1011.21 1011.60 1011.91 1012.16 1012.38 1012.63 1012.93 1013.32 1013.78 1014.28 1014.75 1015.14 1015.40 1015.53 1015.53 1015.44 1015.32 1015.23 1015.22 1015.31 1015.49 1015.73 1016.02 1016.31 1016.58 1016.81 1017.01 1017.20
1003.76 1004.36 1005.07 1005.80 1006.48 1007.08 1007.58 1007.98 1008.32 1008.64 1008.99 1009.38 1009.82 1010.29 1010.74 1011.16 1011.51 1011.80 1012.05 1012.28 1012.55 1012.87 1013.26 1013.70 1014.15 1014.57 1014.90 1015.12 1015.22 1015.22 1015.16 1015.09 1015.05 1015.10 1015.22 1015.43 1015.68 1015.95 1016.21 1016.44 1016.63 1016.79 1016.94
1004.25 1004.73 1005.31 1005.92 1006.51 1007.06 1007.53 1007.94 1008.32 1008.69 1009.07 1009.49 1009.92 1010.36 1010.78 1011.15 1011.46 1011.72 1011.94 1012.17 1012.44 1012.75 1013.11 1013.51 1013.91 1014.27 1014.55 1014.72 1014.80 1014.80 1014.77 1014.75 1014.77 1014.87 1015.04 1015.27 1015.53 1015.78 1016.01 1016.19 1016.34 1016.45 1016.56
1004.69 1005.03 1005.46 1005.95 1006.45 1006.93 1007.39 1007.83 1008.26 1008.69 1009.13 1009.58 1010.03 1010.46 1010.84 1011.17 1011.44 1011.66 1011.86 1012.08 1012.32 1012.61 1012.95 1013.30 1013.64 1013.94 1014.15 1014.28 1014.34 1014.34 1014.33 1014.34 1014.41 1014.54 1014.74 1014.99 1015.24 1015.47 1015.67 1015.81 1015.92 1015.99 1016.07
1005.05 1005.24 1005.52 1005.88 1006.29 1006.73 1007.19 1007.66 1008.15 1008.66 1009.16 1009.66 1010.14 1010.56 1010.92 1011.22 1011.45 1011.65 1011.83 1012.02 1012.25 1012.52 1012.82 1013.13 1013.42 1013.66 1013.82 1013.90 1013.92 1013.91 1013.90 1013.92 1014.00 1014.15 1014.35 1014.58 1014.82 1015.03 1015.20 1015.31 1015.39 1015.44 1015.49
1005.33 1005.37 1005.52 1005.76 1006.09 1006.49 1006.95 1007.47 1008.02 1008.59 1009.17 1009.72 1010.22 1010.65 1011.01 1011.28 1011.49 1011.67 1011.84 1012.03 1012.25 1012.51 1012.80 1013.08 1013.33 1013.52 1013.63 1013.66 1013.64 1013.60 1013.56 1013.56 1013.61 1013.74 1013.91 1014.11 1014.32 1014.50 1014.64 1014.73 1014.80 1014.84 1014.90
1005.57 1005.50 1005.53 1005.67 1005.93 1006.29 1006.75 1007.29 1007.89 1008.52 1009.15 1009.74 1010.27 1010.71 1011.06 1011.33 1011.54 1011.71 1011.89 1012.09 1012.33 1012.61 1012.89 1013.17 1013.40 1013.55 1013.62 1013.61 1013.54 1013.45 1013.36 1013.30 1013.31 1013.37 1013.49 1013.64 1013.79 1013.93 1014.05 1014.14 1014.21 1014.27 1014.34
1005.83 1005.68 1005.62 1005.69 1005.88 1006.19 1006.63 1007.18 1007.80 1008.46 1009.12 1009.73 1010.27 1010.71 1011.06 1011.33 1011.54 1011.74 1011.94 1012.18 1012.46 1012.77 1013.08 1013.37 1013.60 1013.74 1013.78 1013.73 1013.61 1013.46 1013.31 1013.18 1013.11 1013.10 1013.14 1013.22 1013.32 1013.42 1013.52 1013.60 1013.68 1013.76 1013.86
1006.15 1005.95 1005.84 1005.85 1005.98 1006.25 1006.65 1007.17 1007.78 1008.43 1009.07 1009.68 1010.21 1010.64 1010.99 1011.26 1011.49 1011.71 1011.96 1012.25 1012.58 1012.93 1013.29 1013.60 1013.85 1013.98 1014.01 1013.94 1013.78 1013.58 1013.36 1013.17 1013.02 1012.93 1012.90 1012.91 1012.96 1013.02 1013.09 1013.17 1013.25 1013.36 1013.48
1006.53 1006.32 1006.19 1006.15 1006.24 1006.46 1006.81 1007.27 1007.83 1008.43 1009.04 1009.60 1010.10 1010.51 1010.84 1011.12 1011.36 1011.61 1011.90 1012.24 1012.62 1013.03 1013.43 1013.77 1014.04 1014.19 1014.21 1014.12 1013.95 1013.71 1013.46 1013.21 1013.01 1012.86 1012.76 1012.72 1012.71 1012.73 1012.78 1012.85 1012.94 1013.06 1013.20
1006.91 1006.74 1006.60 1006.56 1006.61 1006.78 1007.07 1007.46 1007.95 1008.48 1009.02 1009.52 1009.96 1010.34 1010.65 1010.92 1011.17 1011.45 1011.77 1012.14 1012.57 1013.01 1013.44 1013.81 1014.09 1014.25 1014.28 1014.20 1014.02 1013.77 1013.51 1013.25 1013.01 1012.83 1012.70 1012.61 1012.57 1012.56 1012.59 1012.64 1012.73 1012.84 1012.97
1007.24 1007.11 1007.01 1006.97 1007.01 1007.14 1007.37 1007.70 1008.11 1008.56 1009.02 1009.45 1009.84 1010.17 1010.45 1010.71 1010.96 1011.25 1011.58 1011.97 1012.41 1012.86 1013.30 1013.68 1013.96 1014.13 1014.17 1014.10 1013.94 1013.71 1013.46 1013.22 1012.99 1012.81 1012.67 1012.56 1012.50 1012.47 1012.47 1012.50 1012.56 1012.65 1012.76
1007.41 1007.36 1007.33 1007.32 1007.36 1007.47 1007.66 1007.93 1008.27 1008.66 1009.06 1009.43 1009.77 1010.07 1010.32 1010.56 1010.80 1011.08 1011.40 1011.78 1012.20 1012.63 1013.04 1013.40 1013.67 1013.84 1013.88 1013.83 1013.70 1013.51 1013.31 1013.10 1012.91 1012.75 1012.63 1012.53 1012.46 1012.41 1012.38 1012.38 1012.41 1012.47 1012.54
1007.39 1007.44 1007.47 1007.52 1007.59 1007.70 1007.88 1008.13 1008.43 1008.78 1009.14 1009.48 1009.80 1010.07 1010.30 1010.52 1010.75 1011.00 1011.29 1011.63 1012.00 1012.39 1012.75 1013.06 1013.30 1013.44 1013.49 1013.45 1013.36 1013.22 1013.06 1012.91 1012.77 1012.66 1012.56 1012.47 1012.39 1012.33 1012.27 1012.24 1012.23 1012.24 1012.28
1007.19 1007.33 1007.45 1007.56 1007.67 1007.82 1008.01 1008.27 1008.57 1008.92 1009.27 1009.62 1009.93 1010.21 1010.44 1010.65 1010.86 1011.07 1011.32 1011.60 1011.90 1012.21 1012.50 1012.75 1012.94 1013.05 1013.09 1013.06 1012.99 1012.89 1012.79 1012.69 1012.61 1012.53 1012.45 1012.38 1012.30 1012.21 1012.13 1012.05 1012.00 1011.97 1011.96
1006.89 1007.11 1007.30 1007.48 1007.65 1007.84 1008.08 1008.36 1008.70 1009.08 1009.47 1009.85 1010.19 1010.49 1010.74 1010.95 1011.13 1011.32 1011.51 1011.72 1011.94 1012.17 1012.38 1012.56 1012.69 1012.76 1012.78 1012.75 1012.70 1012.63 1012.57 1012.51 1012.45 1012.40 1012.34 1012.27 1012.17 1012.06 1011.94 1011.82 1011.72 1011.64 1011.60
1006.62 1006.89 1007.14 1007.37 1007.60 1007.84 1008.13 1008.47 1008.86 1009.29 1009.74 1010.17 1010.56 1010.90 1011.17 1011.39 1011.56 1011.71 1011.85 1011.99 1012.14 1012.29 1012.42 1012.53 1012.60 1012.64 1012.63 1012.60 1012.55 1012.50 1012.45 1012.41 1012.37 1012.32 1012.25 1012.16 1012.04 1011.89 1011.73 1011.56 1011.42 1011.31 1011.23
1006.50 1006.81 1007.09 1007.36 1007.62 1007.91 1008.25 1008.64 1009.09 1009.58 1010.09 1010.58 1011.02 1011.39 1011.69 1011.92 1012.08 1012.20 1012.30 1012.39 1012.47 1012.55 1012.62 1012.67 1012.70 1012.70 1012.67 1012.63 1012.58 1012.53 1012.48 1012.43 1012.38 1012.31 1012.22 1012.10 1011.94 1011.75 1011.54 1011.33 1011.14 1010.99 1010.89
Thickness
5810 5808 5796 5794 5791 5789 5788 5786 5784 5782 5780 5777 5775 5773 5771 5768 5766 5765 5763 5761 5760 5758 5757 5756 5755 5754 5753 5752 5750 5749 5748 5747 5746 5745 5744 5744 5743 5742 5742 5741 5742 5745 5742
5812 5806 5794 5791 5789 5787 5785 5783 5781 5779 5777 5775 5772 5770 5768 5765 5763 5761 5760 5758 5757 5756 5754 5753 5752 5750 5749 5748 5748 5747 5746 5745 5744 5743 5743 5742 5741 5740 5739 5739 5739 5741 5739
5809 5803 5793 5788 5786 5784 5782 5780 5778 5776 5774 5772 5769 5767 5765 5762 5760 5758 5756 5755 5754 5752 5751 5749 5748 5747 5746 5745 5744 5744 5742 5742 5741 5741 5742 5745 5744 5739 5737 5736 5736 5735 5735
5804 5799 5793 5785 5783 5781 5779 5777 5775 5773 5771 5769 5766 5763 5761 5759 5757 5755 5754 5752 5751 5749 5748 5746 5745 5744 5743 5742 5741 5741 5740 5739 5739 5739 5743 5746 5745 5739 5735 5734 5733 5732 5732
5800 5795 5789 5783 5780 5777 5775 5773 5771 5769 5767 5765 5762 5760 5758 5756 5754 5752 5751 5749 5747 5746 5745 5743 5742 5741 5740 5739 5738 5738 5737 5736 5736 5738 5743 5743 5741 5737 5733 5732 5731 5730 5729
5796 5793 5786 5780 5776 5774 5772 5769 5768 5765 5763 5760 5758 5756 5754 5752 5750 5749 5747 5746 5744 5743 5742 5740 5739 5738 5737 5736 5735 5735 5734 5734 5735 5741 5742 5741 5739 5734 5731 5729 5729 5728 5727
5794 5790 5783 5776 5773 5771 5768 5766 5763 5761 5759 5756 5754 5752 5750 5748 5746 5745 5743 5742 5741 5740 5738 5737 5736 5735 5734 5733 5732 5732 5732 5732 5735 5741 5740 5738 5736 5731 5729 5727 5726 5726 5725
5790 5787 5779 5772 5769 5767 5764 5762 5759 5757 5754 5752 5750 5748 5746 5744 5742 5741 5740 5739 5738 5736 5735 5734 5733 5732 5731 5730 5729 5729 5729 5729 5734 5738 5737 5735 5731 5728 5726 5725 5724 5723 5723
5787 5783 5777 5772 5767 5763 5761 5758 5756 5753 5750 5748 5746 5744 5742 5741 5739 5737 5736 5735 5734 5733 5732 5731 5729 5728 5728 5727 5726 5726 5726 5727 5731 5736 5735 5733 5728 5725 5723 5722 5721 5721 5720
5782 5779 5774 5770 5766 5763 5759 5754 5752 5749 5747 5744 5742 5740 5739 5737 5736 5734 5733 5731 5730 5729 5728 5727 5726 5725 5724 5724 5724 5723 5723 5725 5731 5734 5732 5729 5724 5721 5720 5719 5718 5718 5717
5773 5773 5770 5768 5764 5762 5758 5752 5749 5746 5743 5741 5739 5737 5735 5736 5735 5733 5731 5728 5726 5725 5724 5723 5722 5722 5721 5722 5721 5721 5722 5727 5731 5730 5728 5724 5720 5718 5716 5716 5715 5715 5715
5765 5765 5765 5763 5760 5758 5755 5750 5748 5745 5741 5740 5738 5736 5735 5734 5732 5731 5727 5724 5722 5721 5721 5720 5719 5719 5719 5723 5721 5719 5724 5726 5727 5726 5724 5719 5716 5714 5713 5712 5712 5712 5711
5762 5760 5759 5758 5756 5754 5752 5748 5746 5744 5740 5738 5735 5733 5731 5731 5729 5728 5726 5723 5721 5720 5720 5719 5719 5720 5720 5720 5720 5721 5722 5723 5724 5723 5720 5715 5712 5710 5710 5709 5708 5708 5708
5757 5755 5755 5754 5751 5749 5748 5745 5743 5741 5738 5736 5732 5730 5729 5728 5726 5725 5723 5722 5721 5720 5718 5718 5717 5717 5715 5715 5715 5716 5717 5719 5719 5718 5715 5711 5708 5707 5706 5706 5705 5704 5704
5753 5751 5751 5749 5746 5744 5741 5740 5738 5736 5735 5731 5729 5727 5725 5724 5722 5721 5720 5718 5719 5717 5716 5715 5715 5713 5712 5712 5713 5713 5713 5714 5713 5714 5712 5707 5705 5703 5702 5702 5701 5701 5700
5748 5747 5746 5744 5742 5739 5736 5734 5733 5732 5729 5728 5725 5724 5721 5720 5719 5718 5716 5715 5715 5714 5713 5712 5711 5710 5709 5709 5708 5708 5708 5709 5709 5708 5708 5705 5702 5700 5699 5699 5698 5697 5697
5744 5742 5741 5740 5737 5734 5732 5731 5730 5728 5727 5725 5723 5719 5717 5715 5714 5713 5714 5712 5712 5710 5708 5707 5707 5706 5705 5705 5705 5705 5705 5704 5705 5703 5703 5703 5702 5698 5696 5695 5694 5694 5693
5740 5737 5736 5736 5733 5730 5728 5726 5726 5724 5723 5722 5720 5717 5713 5711 5709 5708 5709 5709 5707 5706 5705 5705 5704 5703 5702 5701 5701 5702 5702 5701 5700 5699 5699 5698 5698 5698 5695 5693 5691 5690 5689
5734 5732 5731 5730 5728 5726 5724 5722 5721 5719 5718 5717 5715 5713 5710 5707 5706 5705 5705 5704 5703 5702 5702 5701 5700 5698 5697 5696 5697 5697 5698 5697 5696 5696 5695 5694 5693 5692 5691 5690 5687 5686 5685
5730 5728 5726 5725 5723 5722 5720 5718 5716 5715 5713 5712 5710 5708 5706 5704 5702 5701 5701 5699 5699 5698 5696 5695 5693 5692 5691 5691 5693 5693 5693 5693 5692 5692 5690 5690 5689 5688 5687 5686 5685 5684 5681
5725 5723 5722 5720 5718 5717 5715 5713 5711 5709 5708 5707 5706 5703 5701 5700 5698 5697 5697 5694 5694 5693 5691 5690 5688 5687 5687 5687 5686 5685 5687 5688 5687 5686 5685 5685 5685 5683 5682 5681 5680 5680 5679
5720 5719 5717 5715 5713 5711 5710 5708 5707 5705 5705 5703 5701 5697 5696 5695 5693 5693 5690 5690 5689 5687 5685 5684 5683 5682 5683 5682 5680 5678 5678 5680 5680 5683 5681 5679 5679 5678 5677 5677 5675 5673 5673
5716 5715 5714 5710 5708 5707 5706 5705 5703 5700 5699 5697 5695 5693 5692 5691 5689 5688 5686 5685 5684 5684 5682 5680 5679 5677 5677 5678 5676 5673 5671 5672 5673 5677 5675 5675 5672 5671 5671 5671 5670 5668 5667
5713 5712 5709 5706 5704 5703 5702 5701 5698 5696 5694 5693 5692 5690 5688 5686 5685 5683 5681 5680 5679 5679 5676 5676 5675 5674 5671 5672 5671 5669 5668 5667 5664 5666 5668 5668 5667 5664 5664 5664 5664 5662 5660
5710 5708 5706 5703 5701 5700 5698 5697 5695 5694 5692 5691 5689 5686 5684 5683 5681 5679 5677 5675 5673 5673 5671 5669 5668 5668 5668 5667 5666 5665 5663 5662 5660 5657 5657 5658 5659 5659 5658 5657 5656 5655 5653
5707 5705 5703 5700 5697 5696 5694 5693 5690 5688 5686 5685 5683 5681 5680 5679 5677 5674 5672 5670 5669 5668 5666 5665 5664 5663 5662 5660 5660 5660 5659 5656 5655 5653 5650 5651 5651 5652 5652 5650 5648 5647 5646